MYT554 EGGW-LEIB

Flight info

Callsign MYT554
Flight time N/A
Altitude 37000
Route RODNI N27 ICTAM Q63 CPT UN859 SOPIL DCT BALAN DCT EVPOK DCT NARAK DCT GAI DCT LOMRA DCT ROCAN/N0464F310 DCT PUMAL N859 BCN Z174 CORDA
Aircraft A320/M-SDE3FGHIRWY/LB1

Departure

Time 2026-05-01 09:15
Airport London Luton Airport (EGGW)

Arrival

Time N/A
Airport Ibiza Airport (LEIB)
Time Latitude Longitude Altitude Speed Heading
2026-05-01 08:53 51.88073 -0.37385 508 ft 0 kts 342°
2026-05-01 09:06 51.88056 -0.37376 508 ft 4 kts 342°
2026-05-01 09:06 51.88035 -0.37366 508 ft 4 kts 332°
2026-05-01 09:06 51.88020 -0.37339 508 ft 4 kts 275°
2026-05-01 09:06 51.88024 -0.37300 508 ft 4 kts 252°
2026-05-01 09:07 51.88032 -0.37259 508 ft 4 kts 252°
2026-05-01 09:07 51.88040 -0.37220 508 ft 4 kts 251°
2026-05-01 09:07 51.88052 -0.37183 508 ft 4 kts 221°
2026-05-01 09:07 51.88074 -0.37166 508 ft 4 kts 176°
2026-05-01 09:08 51.88098 -0.37175 510 ft 3 kts 161°
2026-05-01 09:08 51.88102 -0.37178 510 ft 1 kts 161°
2026-05-01 09:09 51.88101 -0.37177 510 ft 1 kts 161°
2026-05-01 09:09 51.88068 -0.37159 508 ft 9 kts 161°
2026-05-01 09:09 51.88005 -0.37125 508 ft 10 kts 161°
2026-05-01 09:10 51.87932 -0.37085 509 ft 12 kts 161°
2026-05-01 09:10 51.87851 -0.37042 512 ft 9 kts 161°
2026-05-01 09:10 51.87787 -0.37009 516 ft 14 kts 162°
2026-05-01 09:10 51.87684 -0.36956 523 ft 15 kts 162°
2026-05-01 09:11 51.87620 -0.37017 522 ft 15 kts 257°
2026-05-01 09:11 51.87588 -0.37212 522 ft 20 kts 253°
2026-05-01 09:11 51.87581 -0.37406 522 ft 15 kts 264°
2026-05-01 09:11 51.87511 -0.37509 521 ft 15 kts 234°
2026-05-01 09:12 51.87479 -0.37677 523 ft 16 kts 254°
2026-05-01 09:12 51.87451 -0.37842 522 ft 14 kts 254°
2026-05-01 09:12 51.87426 -0.37981 524 ft 12 kts 251°
2026-05-01 09:12 51.87372 -0.38063 523 ft 11 kts 205°
2026-05-01 09:13 51.87360 -0.38072 523 ft 0 kts 206°
2026-05-01 09:13 51.87303 -0.38112 522 ft 17 kts 193°
2026-05-01 09:13 51.87224 -0.38208 523 ft 14 kts 251°
2026-05-01 09:13 51.87182 -0.38311 520 ft 9 kts 278°
2026-05-01 09:14 51.87209 -0.38308 520 ft 3 kts 65°
2026-05-01 09:14 51.87211 -0.38292 521 ft 2 kts 75°
2026-05-01 09:14 51.87269 -0.37950 524 ft 70 kts 74°
2026-05-01 09:14 51.87462 -0.36845 523 ft 131 kts 75°
2026-05-01 09:15 51.87739 -0.35238 789 ft 153 kts 78°
2026-05-01 09:15 51.88027 -0.33580 1461 ft 157 kts 81°
2026-05-01 09:15 51.88342 -0.31759 1919 ft 171 kts 80°
2026-05-01 09:15 51.88676 -0.29890 2510 ft 179 kts 78°
2026-05-01 09:16 51.89038 -0.27839 2886 ft 204 kts 79°
2026-05-01 09:16 51.89124 -0.25469 3203 ft 222 kts 109°
2026-05-01 09:16 51.88310 -0.23285 3620 ft 239 kts 142°
2026-05-01 09:17 51.85057 -0.22875 4002 ft 253 kts 212°
2026-05-01 09:17 51.83939 -0.25040 4013 ft 258 kts 244°
2026-05-01 09:17 51.83025 -0.30692 4011 ft 262 kts 257°
2026-05-01 09:18 51.82697 -0.33596 4010 ft 262 kts 256°
2026-05-01 09:18 51.81976 -0.39348 4263 ft 262 kts 254°
2026-05-01 09:19 51.81153 -0.45102 4769 ft 263 kts 253°
2026-05-01 09:19 51.80724 -0.47985 4952 ft 264 kts 253°
2026-05-01 09:19 51.80295 -0.50836 5001 ft 263 kts 253°
2026-05-01 09:20 51.79422 -0.56586 4998 ft 263 kts 253°
2026-05-01 09:20 51.78538 -0.62390 6266 ft 269 kts 253°
2026-05-01 09:21 51.77625 -0.68323 8029 ft 276 kts 253°
2026-05-01 09:21 51.77157 -0.71351 8873 ft 280 kts 253°
2026-05-01 09:21 51.76149 -0.77503 10521 ft 286 kts 245°
2026-05-01 09:22 51.73773 -0.82631 11780 ft 299 kts 222°
2026-05-01 09:22 51.70586 -0.87733 12181 ft 346 kts 222°
2026-05-01 09:23 51.68849 -0.90510 12645 ft 356 kts 222°
2026-05-01 09:23 51.64989 -0.95556 14009 ft 360 kts 201°
2026-05-01 09:24 51.60105 -0.96338 15285 ft 362 kts 171°
2026-05-01 09:24 51.57610 -0.95657 15910 ft 365 kts 170°
2026-05-01 09:24 51.52555 -0.94200 17170 ft 372 kts 170°
2026-05-01 09:25 51.47406 -0.92738 18425 ft 379 kts 170°
2026-05-01 09:25 51.42174 -0.91288 19501 ft 384 kts 170°
2026-05-01 09:26 51.39527 -0.90551 20033 ft 387 kts 170°
2026-05-01 09:26 51.34193 -0.89059 21069 ft 391 kts 170°
2026-05-01 09:26 51.31508 -0.88314 21557 ft 393 kts 170°
2026-05-01 09:27 51.26076 -0.86811 22512 ft 398 kts 170°
2026-05-01 09:27 51.23386 -0.86003 22955 ft 400 kts 165°
2026-05-01 09:27 51.20795 -0.84348 23378 ft 403 kts 155°
2026-05-01 09:28 51.18262 -0.82388 23806 ft 406 kts 155°
2026-05-01 09:28 51.15719 -0.80403 24166 ft 408 kts 155°
2026-05-01 09:28 51.13166 -0.78398 24518 ft 410 kts 155°
2026-05-01 09:28 51.10599 -0.76385 24857 ft 412 kts 155°
2026-05-01 09:29 51.05420 -0.72361 25525 ft 416 kts 155°
2026-05-01 09:29 51.02804 -0.70336 25855 ft 418 kts 155°
2026-05-01 09:30 50.97545 -0.66268 26485 ft 422 kts 155°
2026-05-01 09:30 50.94897 -0.64222 26781 ft 424 kts 155°
2026-05-01 09:30 50.89571 -0.60116 27344 ft 428 kts 155°
2026-05-01 09:31 50.86887 -0.58052 27612 ft 430 kts 155°
2026-05-01 09:31 50.84186 -0.55980 27836 ft 432 kts 155°
2026-05-01 09:31 50.78745 -0.51809 28315 ft 436 kts 155°
2026-05-01 09:32 50.76008 -0.49717 28579 ft 436 kts 155°
2026-05-01 09:32 50.70585 -0.45572 29220 ft 435 kts 155°
2026-05-01 09:32 50.67865 -0.43490 29547 ft 434 kts 155°
2026-05-01 09:33 50.65150 -0.41418 29871 ft 434 kts 155°
2026-05-01 09:33 50.62432 -0.39353 30154 ft 434 kts 155°
2026-05-01 09:33 50.56982 -0.35221 30693 ft 434 kts 155°
2026-05-01 09:34 50.54257 -0.33161 30965 ft 434 kts 155°
2026-05-01 09:34 50.51537 -0.31105 31243 ft 433 kts 155°
2026-05-01 09:34 50.47023 -0.27694 31701 ft 433 kts 155°
2026-05-01 09:35 50.43409 -0.24973 32072 ft 432 kts 155°
2026-05-01 09:35 50.38898 -0.21577 32506 ft 432 kts 155°
2026-05-01 09:35 50.36186 -0.19532 32768 ft 432 kts 155°
2026-05-01 09:36 50.33478 -0.17492 33042 ft 432 kts 155°
2026-05-01 09:36 50.30768 -0.15460 33316 ft 431 kts 155°
2026-05-01 09:36 50.28061 -0.13441 33604 ft 430 kts 156°
2026-05-01 09:36 50.25360 -0.11430 33889 ft 430 kts 156°
2026-05-01 09:37 50.22658 -0.09417 34172 ft 429 kts 155°
2026-05-01 09:37 50.17266 -0.05401 34648 ft 429 kts 155°
2026-05-01 09:37 50.14608 -0.03420 34870 ft 429 kts 155°
2026-05-01 09:38 50.08619 0.00546 35384 ft 426 kts 165°
2026-05-01 09:38 50.02894 0.02777 35848 ft 424 kts 166°
2026-05-01 09:38 49.97161 0.05041 36207 ft 425 kts 166°
2026-05-01 09:39 49.85622 0.09595 36841 ft 428 kts 166°
2026-05-01 09:39 49.79831 0.11846 37182 ft 428 kts 166°
2026-05-01 09:39 49.74016 0.14105 37221 ft 432 kts 166°
2026-05-01 09:40 49.41659 0.27063 37196 ft 437 kts 165°
2026-05-01 09:40 49.29932 0.31729 37046 ft 437 kts 165°
2026-05-01 09:41 49.18277 0.36648 37145 ft 432 kts 164°
2026-05-01 09:41 48.95112 0.46359 37336 ft 433 kts 164°
2026-05-01 09:41 48.83453 0.51220 37234 ft 437 kts 164°
2026-05-01 09:42 48.71772 0.55941 37084 ft 439 kts 165°
2026-05-01 09:42 48.60041 0.60484 37095 ft 436 kts 165°
2026-05-01 09:42 48.36605 0.69878 37328 ft 433 kts 164°
2026-05-01 09:43 48.13796 0.78981 37187 ft 444 kts 165°
2026-05-01 09:43 48.02583 0.83365 37211 ft 442 kts 165°
2026-05-01 09:44 47.84728 0.90338 37248 ft 442 kts 165°
2026-05-01 09:45 47.72891 0.94906 37246 ft 443 kts 165°
2026-05-01 09:45 47.54978 1.01829 37243 ft 444 kts 165°
2026-05-01 09:47 47.38636 1.06348 37250 ft 444 kts 181°
2026-05-01 09:47 47.37591 1.06318 37249 ft 444 kts 181°